SCP
2 3 3 3 3 3 3 3 2 2 2 2 2 2 2 2 2 2 2 1 1 1 0 0 0 0 0 0 0 0 0 0 1 1 1 1 1 1
2 2 3 3 3 3 3 3 3 2 2 2 2 2 2 2 2 2 2 2 1 1 1 0 0 0 0 0 0 0 0 0 0 1 1 1 1 1
1 2 2 2 3 3 3 3 3 3 2 2 3 3 3 2 2 2 3 2 2 2 1 1 1 0 0 0 0 0 0 0 0 0 1 1 1 1
1 2 2 2 2 3 3 3 3 3 3 3 3 3 3 3 3 3 2 2 2 2 2 1 1 1 0 0 0 0 0 0 0 0 0 0 0 0
1 2 2 2 2 3 3 3 3 3 3 3 4 4 4 4 4 3 3 3 3 2 2 2 1 1 1 0 0 0 0 0 0 0 0 0 0 0
2 2 2 2 2 3 3 2 2 3 3 3 4 4 4 4 4 3 3 3 3 2 2 2 2 2 1 1 0 0 0 0 0 0 0 0 0 0
2 2 2 2 2 2 2 2 2 2 3 3 3 4 4 4 4 4 4 4 3 3 2 3 3 3 2 2 1 0 0 0 0 0 0 0 0 0
2 2 2 2 2 2 1 1 1 2 2 2 2 3 3 4 4 4 4 4 3 3 3 3 3 3 3 3 2 1 0 0 0 0 0 0 0 0
3 3 3 3 3 2 2 1 1 1 1 2 2 2 2 3 3 3 3 3 3 4 4 4 3 3 4 4 3 1 0 0 0 0 0 0 0 0
3 3 3 3 3 2 2 2 2 1 1 1 2 2 1 2 2 2 2 3 4 4 5 4 4 4 4 4 3 2 1 0 0 0 0 0 0 0
3 3 3 2 2 2 3 3 2 2 1 1 1 1 1 1 1 1 2 3 3 3 4 4 4 4 5 6 4 2 1 1 0 0 0 0 0 0
3 2 2 1 1 1 2 2 2 1 1 1 1 1 1 1 1 1 1 2 2 2 3 3 3 4 5 5 5 4 3 2 1 0 0 0 0 0
2 2 1 1 0 0 1 1 1 1 1 1 1 1 1 1 1 1 1 2 2 2 2 2 3 4 5 5 5 5 4 4 3 2 1 0 0 0
1 1 1 0 0 0 0 0 0 0 1 1 1 1 1 1 1 1 1 1 1 1 2 2 3 5 6 6 6 6 7 7 6 4 2 1 0 0
1 1 0 0 0 0 0 0 0 0 0 1 1 1 1 1 1 1 1 1 1 1 1 2 3 4 6 7 7 8 10 10 8 5 3 2 1 0
1 0 0 0 0 0 0 0 0 0 0 0 1 1 2 2 1 1 1 1 1 1 1 1 2 3 4 6 7 9 11 11 8 6 4 2 1 1
0 0 0 0 0 0 0 0 0 0 0 1 1 1 2 2 1 1 1 1 1 1 1 2 2 2 3 4 5 7 9 10 8 5 4 2 1 1
0 0 0 0 0 0 1 1 1 1 1 1 1 1 1 1 1 1 1 1 1 1 1 2 2 2 2 3 3 4 6 6 6 4 3 2 1 1
0 0 0 0 0 0 0 0 1 1 1 1 1 1 1 1 1 1 2 2 2 1 1 2 2 2 1 2 2 2 3 3 3 2 2 2 1 1
0 0 0 0 0 0 0 1 1 1 1 1 1 1 1 1 1 1 2 2 2 2 1 2 1 1 1 1 1 1 1 1 2 2 2 1 1 1
1 0 0 0 0 1 1 1 1 1 1 1 1 1 1 1 1 1 1 1 2 2 2 1 1 1 1 1 1 1 1 1 1 2 1 1 1 1
1 1 1 1 1 1 1 1 1 1 1 1 1 0 0 0 1 1 1 1 1 1 1 1 1 1 1 1 1 1 2 1 1 1 1 1 1 1
1 1 1 1 1 1 1 1 1 1 1 1 1 1 1 0 0 1 1 1 1 1 1 1 1 1 1 1 1 1 1 1 1 1 1 1 1 1
Wind_Speed
2 2 3 2 3 3 3 3 4 4 3 2 2 1 2 2 2 3 3 4 5 6 6 6 6 6 5 6 6 7 7 8 8 8 8 8 9 9
2 3 3 2 2 3 3 3 3 4 4 2 1 1 1 2 2 3 4 5 6 6 6 6 6 6 6 6 6 7 7 7 7 8 8 9 9 9
3 2 3 4 3 3 2 3 3 3 4 3 1 0 1 2 1 3 3 4 4 7 6 6 6 6 6 6 6 6 7 7 7 7 7 9 9 9
3 3 3 3 3 3 3 3 3 3 4 4 2 1 2 2 2 3 3 2 2 4 6 6 6 6 5 5 5 5 6 7 7 7 7 7 8 8
3 3 3 3 3 3 3 3 2 2 3 3 2 2 2 1 2 2 2 2 3 2 5 6 6 6 6 6 5 5 6 6 6 6 6 7 6 6
3 3 3 3 3 3 3 3 3 3 3 3 2 2 2 1 2 2 2 2 2 2 1 2 5 8 8 7 6 5 5 5 5 6 6 6 6 6
3 3 3 2 4 4 4 3 3 3 3 2 2 2 1 2 2 2 2 2 2 2 2 2 3 4 5 7 6 6 5 5 5 4 4 5 5 6
3 3 3 1 1 1 3 4 5 4 4 3 2 2 3 3 2 3 2 3 2 1 2 3 2 2 2 2 5 6 6 6 5 5 4 4 5 6
3 4 3 2 2 2 2 2 3 4 5 5 4 4 4 3 3 4 3 3 3 2 2 3 2 3 3 2 7 6 6 6 6 6 5 5 5 6
3 3 3 3 3 4 4 4 3 3 3 4 4 5 4 3 4 4 4 4 4 3 3 4 3 3 3 2 7 7 7 6 6 6 5 5 5 6
3 3 3 3 3 4 4 4 4 4 2 2 3 3 3 3 4 4 4 4 4 3 3 3 3 3 3 3 4 8 7 7 6 6 5 4 5 6
3 2 1 3 3 3 5 5 5 5 5 3 3 4 4 4 4 5 4 4 4 3 2 3 3 3 3 2 2 3 4 6 7 6 6 5 4 4
3 3 2 3 3 4 6 5 6 7 6 5 4 3 3 3 3 4 4 4 5 4 2 3 3 3 3 3 2 2 3 2 3 4 6 6 6 4
4 4 3 3 4 5 5 4 6 7 5 4 3 3 2 2 2 2 2 3 4 4 3 4 4 3 3 3 2 2 2 2 2 2 2 6 7 6
3 4 4 4 5 5 3 4 5 5 4 3 3 3 2 2 2 2 2 2 3 3 3 4 5 4 4 4 3 2 2 2 2 2 1 2 2 3
3 3 4 5 5 4 3 3 3 3 4 4 3 3 2 2 2 2 3 2 2 2 2 3 4 5 5 4 4 3 3 2 2 2 1 2 2 2
4 4 3 2 3 3 3 2 3 3 3 3 3 3 2 2 2 2 2 3 3 3 2 2 2 2 3 4 4 3 3 2 2 2 2 2 2 2
5 4 3 3 4 4 4 3 3 3 3 3 3 3 3 2 2 2 2 2 3 3 2 2 2 2 2 2 2 3 3 3 2 3 4 4 3 2
4 3 3 4 4 4 4 4 4 4 3 4 4 3 3 3 3 2 2 2 3 3 3 2 2 3 4 4 2 3 3 3 3 3 3 3 2 1
3 3 4 4 4 4 4 4 4 4 4 4 4 4 3 3 3 3 2 3 2 2 2 2 2 3 4 4 3 2 4 4 3 3 3 2 1 1
3 3 3 4 4 4 4 4 4 4 4 4 4 4 4 4 3 3 3 3 3 2 2 2 2 4 4 3 3 3 2 2 2 3 3 3 3 3
4 4 4 4 4 4 4 4 4 4 4 4 4 4 4 4 4 4 3 3 3 3 3 2 2 3 3 3 4 3 2 3 3 2 1 3 4 3
4 4 4 4 4 4 4 5 5 4 4 4 4 4 4 4 4 4 4 4 3 3 3 2 2 2 2 3 3 3 3 4 3 3 2 3 4 3
Wind_Direction
298 274 274 286 288 282 278 277 276 273 267 239 225 224 241 229 203 237 235 189 202 214 220 226 225 222 219 220 219 219 221 224 222 221 220 219 219 220
305 307 292 288 285 283 275 273 276 275 276 273 268 261 278 258 204 243 239 190 198 208 216 220 218 220 221 222 221 218 217 220 220 220 221 220 219 222
308 296 294 305 300 289 281 283 278 271 267 274 276 241 236 259 260 261 247 235 206 190 204 213 214 218 218 220 223 220 217 216 217 217 222 223 222 223
307 309 300 296 297 296 297 288 285 279 265 268 274 263 248 246 244 253 257 260 260 169 186 198 203 210 212 215 217 218 216 216 215 217 221 224 225 226
298 302 305 302 295 304 296 297 288 276 267 261 266 280 261 260 259 251 255 272 272 179 187 195 199 203 208 210 211 217 217 215 216 216 219 221 222 224
295 297 298 303 302 300 289 290 289 283 266 254 256 261 257 259 262 257 262 262 280 287 275 235 204 203 203 198 201 208 210 212 214 216 218 221 222 224
299 301 308 337 347 325 317 320 300 280 273 265 262 271 281 274 269 270 279 281 274 292 290 264 230 220 204 196 197 198 199 200 201 208 214 217 220 221
302 303 297 268 346 346 339 331 317 291 288 281 267 271 277 276 273 266 264 268 273 277 284 283 275 259 245 220 165 182 195 197 198 205 211 219 225 224
307 305 305 347 331 318 325 275 279 292 288 282 282 277 273 265 263 261 257 272 284 282 282 281 277 270 254 177 144 167 186 193 199 206 212 219 227 226
308 301 305 322 341 335 312 308 298 281 262 259 276 279 280 283 262 258 260 253 260 244 241 263 265 268 268 225 154 169 181 189 198 206 213 223 229 231
310 315 311 313 14 344 305 305 306 296 253 237 263 278 303 286 270 262 252 249 252 238 221 246 261 270 264 245 172 171 181 187 198 205 210 219 230 234
304 299 37 348 359 328 297 295 295 301 305 286 256 243 246 242 232 246 252 252 260 260 216 239 255 266 260 241 229 186 192 191 200 206 205 205 209 232
307 308 7 45 348 315 297 296 302 300 290 281 276 270 253 244 234 235 248 260 266 270 241 239 260 262 264 259 240 228 225 210 202 206 200 191 189 221
308 319 356 15 317 295 289 306 299 287 277 283 282 283 276 272 264 261 256 269 281 284 274 263 265 265 266 264 250 234 231 224 222 224 207 178 188 200
316 341 321 295 286 274 251 272 277 276 286 290 291 294 297 303 304 287 255 239 253 264 253 247 251 249 252 256 258 248 241 231 228 228 205 205 204 205
294 284 251 250 261 287 288 267 274 293 300 297 294 297 306 295 274 275 273 264 260 258 239 235 248 256 249 247 245 244 242 231 219 224 221 226 218 222
307 286 290 302 303 309 310 311 303 299 291 297 298 294 291 291 284 287 289 279 266 264 259 244 230 239 263 270 245 241 239 232 219 205 222 228 223 225
284 289 303 310 313 316 317 316 310 310 309 302 300 297 293 278 268 267 271 276 280 273 266 249 234 232 236 246 290 254 245 240 219 205 227 233 230 216
262 288 304 312 313 313 313 314 315 314 306 295 292 289 284 280 275 269 264 264 269 274 273 250 234 242 245 243 237 265 263 252 238 230 234 243 253 247
270 292 301 305 306 309 311 312 311 311 307 297 289 286 280 279 277 271 266 269 265 267 265 262 251 251 256 266 263 242 245 252 243 240 242 239 235 149
298 298 298 300 303 306 305 299 298 301 304 300 296 296 293 287 281 280 280 272 266 264 263 263 261 262 267 258 245 226 204 211 268 267 256 245 242 238
296 296 301 305 303 303 299 295 291 293 296 294 300 300 296 294 287 279 274 266 256 256 260 258 236 244 252 253 254 246 226 194 186 185 259 295 275 259
312 310 308 299 295 298 299 300 300 302 306 306 306 302 297 295 292 286 280 273 271 267 262 256 243 248 257 252 252 251 239 224 214 202 196 205 217 215